Regional Weather Roundup
Issued by NWS

Home | Current Version | Previous Version | Graphics & Text | Print | Product List | Glossary On
Versions: 1 2 3 4 5 6 7 8 9 10 11 12 13 14 15 16 17 18 19 20 21 22 23 24 25 26 27 28 29 30 31 32 33 34 35 36 37 38 39 40 41 42 43 44 45 46 47 48 49 50
000
ASUS44 KMEG 270500
RWRTN
TENNESSEE HOURLY STATE WEATHER ROUNDUP
NATIONAL WEATHER SERVICE MEMPHIS TN
1100 PM CST SUN FEB 26 2017

TNZ002-004-019-021-049-052-054-088>092-270600-
WEST TENNESSEE

CITY           SKY/WX    TMP DP  RH WIND       PRES   REMARKS
MEMPHIS INTL   LGT RAIN  54  41  61 E6        30.07F
NWS MEMPHIS      N/A     52 N/A N/A MISG        N/A
JACKSON        CLOUDY    56  35  45 S20G30    30.13R
UNION CITY     CLOUDY    50  30  46 CALM      30.14S
PARIS          CLOUDY    48  32  53 SW13      30.17R
$$

TNZ008-025-027-028-033-062-065-066-270600-
NORTH MIDDLE TENNESSEE

CITY           SKY/WX    TMP DP  RH WIND       PRES   REMARKS
NASHVILLE      CLOUDY    49  27  42 CALM      30.17R
CLARKSVILLE    CLOUDY    48  23  37 CALM      30.18R
SMYRNA         CLOUDY    46  32  58 CALM      30.18R
CROSSVILLE     CLOUDY    46  18  32 VRB5      30.16F
$$

TNZ061-075-076-078-094-096-097-270600-
SOUTH MIDDLE TENNESSEE

CITY           SKY/WX    TMP DP  RH WIND       PRES   REMARKS
TULLAHOMA      PTCLDY    48  18  29 SE5       30.14S
WINCHESTER     PTCLDY    46  25  42 SE9       30.14F
MCMINNVILLE    MOCLDY    48  21  34 CALM      30.14S
COLUMBIA       MOCLDY    46  34  61 E3        30.13R
SHELBYVILLE    CLOUDY    52  27  37 CALM      30.15R
$$

TNZ017-018-042-046-047-270600-
NORTHEAST TENNESSEE

CITY           SKY/WX    TMP DP  RH WIND       PRES   REMARKS
TRI CITIES     PTCLDY    30  24  78 CALM      30.23S
$$

TNZ012-013-036-069-073-074-270600-
CENTRAL EAST TENNESSEE

CITY           SKY/WX    TMP DP  RH WIND       PRES   REMARKS
KNOXVILLE      PTCLDY    41  24  51 NE5       30.21F
OAK RIDGE      PTCLDY    39  26  59 CALM      30.23S
GATLINBURG     CLEAR     34  25  69 CALM      30.21F
$$

TNZ083-085-099-270600-
SOUTHEAST TENNESSEE

CITY           SKY/WX    TMP DP  RH WIND       PRES   REMARKS
CHATTANOOGA    MOCLDY    41  33  73 CALM      30.20F
$$

SKY/WX REPORTED AS FAIR MEANS FEW OR NO CLOUDS BELOW
12 THOUSAND FEET.





USA.gov is the U.S. government's official web portal to all federal, state and local government web resources and services.